Hourly Data Report for October 03, 2016

All times are specified in Local Standard Time (LST). Add 1 hour to adjust for Daylight Saving Time where and when it is observed.

PANGNIRTUNG
NUNAVUT

66°08'36.300" N
65°42'40.500" W
22.60 m
2403049
71826
WXP

Download Data

Hourly Data (October 2016)
Hourly Data Report for October 3, 2016
Temp Definition
°C
Dew Point Temp Definition
°C
Rel Hum Definition
%
Wind Dir Definition
10's deg

Wind Spd Definition
km/h
Visibility Definition
km
Stn Press Definition
kPa
Hmdx Definition


Wind Chill Definition


Weather Definition


TIME
00:00 -1.7 -5.5 75 30 14   100.56   -6 LegendNANA
01:00 -2.4 -6.0 76 29 13   100.57   -7 LegendNANA
02:00 -2.3 -6.6 72 31 13   100.58   -7 LegendNANA
03:00 -2.4 -7.0 71 31 12   100.62   -7 LegendNANA
04:00 -2.7 -7.3 70 32 13   100.62   -7 LegendNANA
05:00 -2.6 -7.0 72 32 12   100.63   -7 LegendNANA
06:00 -3.1 -7.7 71 31 18   100.62   -9 LegendNANA
07:00 -3.1 -7.8 70 28 17   100.61   -9 LegendNANA
08:00 -2.9 -7.5 71 28 24   100.58   -10 LegendNANA
09:00 -1.5 -8.4 60 31 14   100.56   -6 LegendNANA
10:00 -1.2 -7.7 61 31 11   100.55   -5 LegendNANA
11:00 -0.4 -6.2 65 30 12   100.51   -4 LegendNANA
12:00 -0.3 -5.6 67 31 16   100.49   -5 LegendNANA
13:00 0.1 -5.4 67 29 25   100.44     LegendNANA
14:00 0.3 -5.0 68 31 20   100.46     LegendNANA
15:00 0.2 -5.1 68 31 19   100.44     LegendNANA
16:00 -0.3 -5.0 71 30 18   100.42   -5 LegendNANA
17:00 -1.2 -5.9 70 26 20   100.40   -7 LegendNANA
18:00 -1.5 -5.4 75 28 13   100.41   -6 LegendNANA
19:00 -2.5 -6.2 75 26 9   100.39   -6 LegendNANA
20:00 -2.5 -6.8 73 21 7   100.38   -5 LegendNANA
21:00 -2.4 -6.1 76 23 8   100.34   -6 LegendNANA
22:00 -2.5 -6.4 74 21 5   100.30   -4 LegendNANA
23:00 -2.6 -6.0 77 24 5   100.26   -5 LegendNANA

Notes on Data Quality.

Legend

  • E = Estimated
  • M = Missing
  • NA = Not Available
  • ‡ = Partner data that is not subject to review by the National Climate Archives
Date modified: